Regional Weather Roundup
Issued by NWS Boston, MA

Home | Current Version | Previous Version | Text Only | Print | Product List | Glossary On
Versions: 1 2 3 4 5 6 7 8 9 10 11 12 13 14 15 16 17 18 19 20 21 22 23 24 25 26 27 28 29 30 31 32 33 34 35 36 37 38 39 40 41 42 43 44 45 46 47 48 49 50
000
ASUS41 KBOX 030810
RWRBOX

REGIONAL WEATHER ROUNDUP
NATIONAL WEATHER SERVICE TAUNTON MA
400 AM EDT TUE MAY 03 2016

NOTE:  "FAIR" INDICATES FEW OR NO CLOUDS BELOW 12,000 FEET WITH NO
SIGNIFICANT WEATHER AND/OR OBSTRUCTIONS TO VISIBILITY.  THE FOLLOWING
OBSERVATION LOCATIONS DO NOT REPORT PRESENT WEATHER...PROVINCETOWN...
SMITHFIELD...BLOCK ISLAND...KEENE...AND OXFORD.

MAZALL-030900-
EASTERN MASSACHUSETTS

CITY           SKY/WX    TMP DP  RH WIND       PRES   REMARKS
BOSTON         PTCLDY    46  43  89 N6        29.92S
BEVERLY        CLOUDY    44  41  89 NW3       29.91S
LAWRENCE       CLOUDY    44  42  93 N5        29.93S
BEDFORD        LGT RAIN  44  44 100 CALM      29.90F
BLUE HILL        N/A     43  43 100 N8        29.88S
NORWOOD        CLOUDY    45  43  93 CALM      29.91R
MARSHFIELD     CLOUDY    45  45 100 N3        29.91S
PLYMOUTH       CLOUDY    45  44  97 CALM      29.91R
TAUNTON        CLOUDY    46  43  89 S5        29.92R
NEW BEDFORD    CLOUDY    47  46  97 SW3       29.93R
$$

MAZALL-030900-
CAPE COD AND THE ISLANDS

CITY           SKY/WX    TMP DP  RH WIND       PRES   REMARKS
FALMOUTH       CLOUDY    43  43 100 S5        29.93R
HYANNIS        MOCLDY    46  44  93 CALM      29.91S
CHATHAM        MOCLDY    44  44 100 CALM      29.92S
PROVINCETOWN   MOCLDY    45  42  89 N8        29.90F
NANTUCKET      CLOUDY    48  44  86 N3        29.92S
MARTHAS VNYRD  MOCLDY    45  44  97 CALM      29.93R
$$

MAZALL-030900-
CENTRAL AND WESTERN MASSACHUSETTS

CITY           SKY/WX    TMP DP  RH WIND       PRES   REMARKS
WORCESTER      LGT RAIN  44  43  96 SE5       29.89F
FITCHBURG      LGT RAIN  47  45  93 N5        29.90F
ORANGE         LGT RAIN  44  43  96 N3        29.90F
SPRINGFIELD    LGT RAIN  46  46 100 NE1       29.89S
WESTFIELD      LGT RAIN  47  45  93 CALM      29.90F
NORTH ADAMS    CLOUDY    47  45  93 W6        29.89F FOG
PITTSFIELD     LGT RAIN  45  43  93 CALM      29.88F
$$

RIZALL-030900-
RHODE ISLAND

CITY           SKY/WX    TMP DP  RH WIND       PRES   REMARKS
PROVIDENCE     CLOUDY    50  44  80 CALM      29.94R
NEWPORT        CLOUDY    48  46  93 S3        29.94R
BLOCK ISLAND   CLOUDY    47  47 100 N3        29.93R
SMITHFIELD       N/A     46  45  93 CALM      29.91R
WESTERLY       LGT RAIN  49  46  90 CALM      29.93F FOG
$$

CTZALL-030900-
CONNECTICUT

CITY           SKY/WX    TMP DP  RH WIND       PRES   REMARKS
BRADLEY INTL   LGT RAIN  48  46  93 CALM      29.90F
HARTFORD       LGT RAIN  51  48  89 SE5       29.92R FOG
BRIDGEPORT     LGT RAIN  52  51  97 NE6       29.89F FOG
DANBURY        RAIN      50  48  93 CALM      29.91S
GROTON         LGT RAIN  50  50 100 NE6       29.92R FOG
NEW HAVEN      LGT RAIN  50  49  96 NE3       29.90F FOG
CHESTER        LGT RAIN  50  48  93 CALM      29.91F
MERIDEN        RAIN      50  48  93 CALM      29.90F FOG
WILLIMANTIC    LGT RAIN  48  46  93 S3        29.93R FOG
OXFORD           N/A     48  45  87 CALM      29.90F
$$

MEZ002-015-021-024-NHZ003-005-008-011-012-014-VTZ005-008-030900-
NORTHERN NEW ENGLAND

CITY           SKY/WX    TMP DP  RH WIND       PRES   REMARKS
PORTLAND ME    CLOUDY    42  39  89 N6        29.90F
BANGOR ME      CLOUDY    43  40  89 N10       29.88F
CONCORD NH     CLOUDY    42  41  96 SE3       29.92R
MANCHESTER NH  CLOUDY    44  42  93 CALM      29.90F FOG
NASHUA NH      CLOUDY    44  43  96 CALM      29.92S
PORTSMOUTH NH  CLOUDY    42  40  95 W5        29.92R
JAFFREY NH     LGT RAIN  44  42  93 CALM      29.90F
KEENE NH       CLOUDY    45  43  93 CALM      29.92F
BURLINGTON VT  CLOUDY    44  41  89 N5        29.94S
MT. WASHINGTON FOG       25  25 100 W29         N/A  VSB 0   WCI   8
$$

NYZ052-076-030900-
EASTERN NEW YORK

CITY           SKY/WX    TMP DP  RH WIND       PRES   REMARKS
ALBANY         CLOUDY    47  44  90 N6        29.93S
NEW YORK CITY  LGT RAIN  54  52  94 NE8       29.86F FOG
$$

ANZALL-030900-
MARINE OBSERVATIONS

STATION/POSITION TIME  TEMP    WIND        PRES    VSBY  WAVE
                       AIR SEA DIR/SP/G                  HT/PER
                 (UTC) (F)     (DEG/KT/KT) (MB)    (MI)  (FT/S)
BOSTON BUOY      0750   46 47  340/ 10/ 10 1012.3F         3/ 8
BUZZARDS BAY     0700   47      60/  8/  9 1012.9F
NANTUCKET SOUND  0750   48 49  350/  4/  6 1013.4S         1/ 3
MASS BAY-STELLWA 0704   45 46                N/A    1 7/8  4/ 7
ISLE OF SHOALS   0700   45     320/  6/  7 1012.7R
S OF BLOCK IS    NOT AVBL
$$

......................KEY.........................
  SKY/WX - SKY CONDITION/PRESENT WEATHER
  TMP    - TEMPERATURE IN FAHRENHEIT
  DWPT   - DEWPOINT IN FAHRENHEIT
  RH     - RELATIVE HUMIDITY IN PERCENT
  WIND   - DIRECTION AND SPEED IN MPH
  PRES   - MEAN SEA LEVEL PRESSURE IN INCHES OF HG
  WCI    - WIND CHILL INDEX
  VSB    - VISIBILITY IN MILES
  HX     - HEAT INDEX
  TC     - TEMPERATURE IN CELSIUS
  VRB    - VARIABLE WIND DIRECTION
  N/A    - NOT AVAILABLE



USA.gov is the U.S. government's official web portal to all federal, state and local government web resources and services.